Time,TemperatureF,DewpointF,PressureIn,WindDirection,WindDirectionDegrees,WindSpeedMPH,WindSpeedGustMPH,Humidity,HourlyPrecipIn,Conditions,Clouds,dailyrainin,SoftwareType,DateUTC
2013-04-16 00:00:00,42.0,31.0,30.44,SSE,157,3.0,6.0,64,0.00,,,0.00,Rainwise IP-100,2013-04-16 04:00:00,
2013-04-16 00:05:00,42.0,31.0,30.44,South,180,2.0,3.0,63,0.00,,,0.00,Rainwise IP-100,2013-04-16 04:05:00,
2013-04-16 00:06:00,42.0,31.0,30.44,South,180,7.0,7.0,63,0.00,,,0.00,Rainwise IP-100,2013-04-16 04:06:00,
2013-04-16 00:11:00,42.0,29.0,30.44,SSE,157,1.0,9.0,61,0.00,,,0.00,Rainwise IP-100,2013-04-16 04:11:00,
2013-04-16 00:17:00,42.0,29.0,30.44,South,180,0.0,6.0,61,0.00,,,0.00,Rainwise IP-100,2013-04-16 04:17:00,
2013-04-16 00:22:00,42.0,29.0,30.44,SSE,157,0.0,7.0,61,0.00,,,0.00,Rainwise IP-100,2013-04-16 04:22:00,
2013-04-16 00:27:00,42.0,29.0,30.44,South,180,1.0,7.0,61,0.00,,,0.00,Rainwise IP-100,2013-04-16 04:27:00,
2013-04-16 00:32:00,42.0,29.0,30.44,South,180,1.0,9.0,60,0.00,,,0.00,Rainwise IP-100,2013-04-16 04:32:00,
2013-04-16 00:37:00,42.0,29.0,30.44,South,180,0.0,10.0,60,0.00,,,0.00,Rainwise IP-100,2013-04-16 04:37:00,
2013-04-16 00:42:00,42.0,29.0,30.44,SSE,157,3.0,9.0,60,0.00,,,0.00,Rainwise IP-100,2013-04-16 04:42:00,
2013-04-16 00:47:00,42.0,29.0,30.44,South,180,3.0,9.0,60,0.00,,,0.00,Rainwise IP-100,2013-04-16 04:47:00,
2013-04-16 00:52:00,42.0,29.0,30.44,South,180,5.0,7.0,60,0.00,,,0.00,Rainwise IP-100,2013-04-16 04:52:00,
2013-04-16 00:57:00,42.0,29.0,30.44,ESE,112,1.0,7.0,60,0.00,,,0.00,Rainwise IP-100,2013-04-16 04:57:00,
2013-04-16 01:02:00,42.0,29.0,30.44,South,180,7.0,7.0,60,0.00,,,0.00,Rainwise IP-100,2013-04-16 05:02:00,
2013-04-16 01:07:00,42.0,29.0,30.44,SE,135,7.0,7.0,60,0.00,,,0.00,Rainwise IP-100,2013-04-16 05:07:00,
2013-04-16 01:12:00,42.0,29.0,30.44,SSE,157,3.0,9.0,60,0.00,,,0.00,Rainwise IP-100,2013-04-16 05:12:00,
2013-04-16 01:18:00,42.0,29.0,30.44,South,180,5.0,9.0,60,0.00,,,0.00,Rainwise IP-100,2013-04-16 05:18:00,
2013-04-16 01:23:00,42.0,29.0,30.44,SW,225,0.0,6.0,60,0.00,,,0.00,Rainwise IP-100,2013-04-16 05:23:00,
2013-04-16 01:28:00,42.0,32.0,30.44,SSW,202,1.0,6.0,68,0.00,,,0.00,Rainwise IP-100,2013-04-16 05:28:00,
2013-04-16 01:33:00,42.0,29.0,30.44,South,180,0.0,6.0,59,0.00,,,0.00,Rainwise IP-100,2013-04-16 05:33:00,
2013-04-16 01:38:00,42.0,32.0,30.44,SE,135,0.0,6.0,68,0.00,,,0.00,Rainwise IP-100,2013-04-16 05:38:00,
2013-04-16 01:43:00,42.0,29.0,30.44,South,180,1.0,5.0,59,0.00,,,0.00,Rainwise IP-100,2013-04-16 05:43:00,
2013-04-16 01:48:00,42.0,32.0,30.44,South,180,3.0,6.0,67,0.00,,,0.00,Rainwise IP-100,2013-04-16 05:48:00,
2013-04-16 01:53:00,42.0,29.0,30.44,South,180,4.0,6.0,59,0.00,,,0.00,Rainwise IP-100,2013-04-16 05:53:00,
2013-04-16 01:58:00,42.0,32.0,30.44,SW,225,0.0,6.0,67,0.00,,,0.00,Rainwise IP-100,2013-04-16 05:58:00,
2013-04-16 02:03:00,42.0,29.0,30.44,SE,135,1.0,4.0,59,0.00,,,0.00,Rainwise IP-100,2013-04-16 06:03:00,
2013-04-16 02:08:00,42.0,32.0,30.44,South,180,1.0,3.0,67,0.00,,,0.00,Rainwise IP-100,2013-04-16 06:08:00,
2013-04-16 02:13:00,41.0,28.0,30.44,SSW,202,0.0,3.0,59,0.00,,,0.00,Rainwise IP-100,2013-04-16 06:13:00,
2013-04-16 02:18:00,41.0,31.0,30.44,South,180,1.0,3.0,67,0.00,,,0.00,Rainwise IP-100,2013-04-16 06:18:00,
2013-04-16 02:23:00,41.0,28.0,30.44,SSW,202,0.0,5.0,59,0.00,,,0.00,Rainwise IP-100,2013-04-16 06:23:00,
2013-04-16 02:28:00,41.0,31.0,30.44,SSW,202,2.0,3.0,67,0.00,,,0.00,Rainwise IP-100,2013-04-16 06:28:00,
2013-04-16 02:34:00,41.0,28.0,30.44,South,180,0.0,4.0,58,0.00,,,0.00,Rainwise IP-100,2013-04-16 06:34:00,
2013-04-16 02:39:00,41.0,31.0,30.44,SSW,202,0.0,4.0,67,0.00,,,0.00,Rainwise IP-100,2013-04-16 06:39:00,
2013-04-16 02:44:00,41.0,28.0,30.44,South,180,0.0,2.0,58,0.00,,,0.00,Rainwise IP-100,2013-04-16 06:44:00,
2013-04-16 02:49:00,41.0,28.0,30.45,South,180,0.0,2.0,59,0.00,,,0.00,Rainwise IP-100,2013-04-16 06:49:00,
2013-04-16 02:54:00,41.0,28.0,30.45,SW,225,0.0,3.0,58,0.00,,,0.00,Rainwise IP-100,2013-04-16 06:54:00,
2013-04-16 02:59:00,41.0,28.0,30.45,South,180,0.0,1.0,59,0.00,,,0.00,Rainwise IP-100,2013-04-16 06:59:00,
2013-04-16 03:04:00,41.0,28.0,30.45,SW,225,0.0,5.0,58,0.00,,,0.00,Rainwise IP-100,2013-04-16 07:04:00,
2013-04-16 03:09:00,41.0,28.0,30.45,SSW,202,1.0,4.0,58,0.00,,,0.00,Rainwise IP-100,2013-04-16 07:09:00,
2013-04-16 03:14:00,41.0,28.0,30.45,South,180,2.0,2.0,57,0.00,,,0.00,Rainwise IP-100,2013-04-16 07:14:00,
2013-04-16 03:19:00,41.0,28.0,30.45,South,180,1.0,4.0,58,0.00,,,0.00,Rainwise IP-100,2013-04-16 07:19:00,
2013-04-16 03:24:00,41.0,28.0,30.45,South,180,1.0,3.0,57,0.00,,,0.00,Rainwise IP-100,2013-04-16 07:24:00,
2013-04-16 03:29:00,41.0,28.0,30.45,South,180,1.0,5.0,57,0.00,,,0.00,Rainwise IP-100,2013-04-16 07:29:00,
2013-04-16 03:34:00,41.0,28.0,30.45,SSE,157,2.0,5.0,57,0.00,,,0.00,Rainwise IP-100,2013-04-16 07:34:00,
2013-04-16 03:39:00,41.0,31.0,30.45,South,180,0.0,3.0,66,0.00,,,0.00,Rainwise IP-100,2013-04-16 07:39:00,
2013-04-16 03:44:00,41.0,28.0,30.45,SSE,157,0.0,2.0,57,0.00,,,0.00,Rainwise IP-100,2013-04-16 07:44:00,
2013-04-16 03:50:00,41.0,28.0,30.45,SSE,157,0.0,2.0,57,0.00,,,0.00,Rainwise IP-100,2013-04-16 07:50:00,
2013-04-16 03:51:00,41.0,28.0,30.45,South,180,0.0,2.0,57,0.00,,,0.00,Rainwise IP-100,2013-04-16 07:51:00,
2013-04-16 03:56:00,41.0,28.0,30.45,South,180,0.0,0.0,57,0.00,,,0.00,Rainwise IP-100,2013-04-16 07:56:00,
2013-04-16 04:01:00,41.0,28.0,30.46,South,180,0.0,2.0,57,0.00,,,0.00,Rainwise IP-100,2013-04-16 08:01:00,
2013-04-16 04:07:00,41.0,28.0,30.46,SSW,202,0.0,4.0,57,0.00,,,0.00,Rainwise IP-100,2013-04-16 08:07:00,
2013-04-16 04:12:00,41.0,28.0,30.46,SE,135,0.0,0.0,57,0.00,,,0.00,Rainwise IP-100,2013-04-16 08:12:00,
2013-04-16 04:17:00,41.0,28.0,30.46,SSW,202,0.0,0.0,57,0.00,,,0.00,Rainwise IP-100,2013-04-16 08:17:00,
2013-04-16 04:22:00,41.0,28.0,30.46,SE,135,0.0,1.0,56,0.00,,,0.00,Rainwise IP-100,2013-04-16 08:22:00,
2013-04-16 04:27:00,41.0,28.0,30.46,SSE,157,0.0,3.0,56,0.00,,,0.00,Rainwise IP-100,2013-04-16 08:27:00,
2013-04-16 04:32:00,41.0,28.0,30.46,SSE,157,0.0,3.0,56,0.00,,,0.00,Rainwise IP-100,2013-04-16 08:32:00,
2013-04-16 04:37:00,41.0,28.0,30.46,SSE,157,0.0,3.0,56,0.00,,,0.00,Rainwise IP-100,2013-04-16 08:37:00,
2013-04-16 04:42:00,41.0,28.0,30.46,South,180,1.0,0.0,56,0.00,,,0.00,Rainwise IP-100,2013-04-16 08:42:00,
2013-04-16 04:47:00,41.0,28.0,30.46,SSE,157,0.0,2.0,56,0.00,,,0.00,Rainwise IP-100,2013-04-16 08:47:00,
2013-04-16 04:52:00,41.0,28.0,30.46,South,180,0.0,1.0,56,0.00,,,0.00,Rainwise IP-100,2013-04-16 08:52:00,
2013-04-16 04:57:00,41.0,28.0,30.46,SSE,157,0.0,2.0,56,0.00,,,0.00,Rainwise IP-100,2013-04-16 08:57:00,
2013-04-16 05:02:00,41.0,28.0,30.46,South,180,1.0,1.0,56,0.00,,,0.00,Rainwise IP-100,2013-04-16 09:02:00,
2013-04-16 05:07:00,41.0,26.0,30.46,SE,135,0.0,2.0,55,0.00,,,0.00,Rainwise IP-100,2013-04-16 09:07:00,
2013-04-16 05:13:00,41.0,26.0,30.46,SE,135,1.0,4.0,55,0.00,,,0.00,Rainwise IP-100,2013-04-16 09:13:00,
2013-04-16 05:18:00,41.0,26.0,30.46,SSE,157,1.0,4.0,55,0.00,,,0.00,Rainwise IP-100,2013-04-16 09:18:00,
2013-04-16 05:23:00,41.0,26.0,30.46,South,180,0.0,2.0,55,0.00,,,0.00,Rainwise IP-100,2013-04-16 09:23:00,
2013-04-16 05:28:00,41.0,26.0,30.46,SE,135,0.0,1.0,55,0.00,,,0.00,Rainwise IP-100,2013-04-16 09:28:00,
2013-04-16 05:33:00,41.0,26.0,30.46,SE,135,0.0,2.0,55,0.00,,,0.00,Rainwise IP-100,2013-04-16 09:33:00,
2013-04-16 05:38:00,40.0,29.0,30.46,South,180,0.0,0.0,65,0.00,,,0.00,Rainwise IP-100,2013-04-16 09:38:00,
2013-04-16 05:43:00,40.0,26.0,30.46,South,180,0.0,0.0,55,0.00,,,0.00,Rainwise IP-100,2013-04-16 09:43:00,
2013-04-16 05:48:00,40.0,29.0,30.46,SSE,157,0.0,0.0,65,0.00,,,0.00,Rainwise IP-100,2013-04-16 09:48:00,
2013-04-16 05:53:00,40.0,26.0,30.46,SSE,157,0.0,0.0,55,0.00,,,0.00,Rainwise IP-100,2013-04-16 09:53:00,
2013-04-16 05:58:00,40.0,29.0,30.46,South,180,0.0,0.0,65,0.00,,,0.00,Rainwise IP-100,2013-04-16 09:58:00,
2013-04-16 06:03:00,40.0,26.0,30.46,SE,135,1.0,1.0,55,0.00,,,0.00,Rainwise IP-100,2013-04-16 10:03:00,
2013-04-16 06:08:00,40.0,29.0,30.46,SSE,157,0.0,2.0,65,0.00,,,0.00,Rainwise IP-100,2013-04-16 10:08:00,
2013-04-16 06:13:00,40.0,26.0,30.46,South,180,0.0,1.0,54,0.00,,,0.00,Rainwise IP-100,2013-04-16 10:13:00,
2013-04-16 06:18:00,40.0,29.0,30.46,South,180,0.0,0.0,65,0.00,,,0.00,Rainwise IP-100,2013-04-16 10:18:00,
2013-04-16 06:23:00,40.0,26.0,30.46,South,180,0.0,3.0,54,0.00,,,0.00,Rainwise IP-100,2013-04-16 10:23:00,
2013-04-16 06:29:00,41.0,31.0,30.46,SSE,157,0.0,1.0,64,0.00,,,0.00,Rainwise IP-100,2013-04-16 10:29:00,
2013-04-16 06:34:00,41.0,26.0,30.46,South,180,1.0,3.0,54,0.00,,,0.00,Rainwise IP-100,2013-04-16 10:34:00,
2013-04-16 06:39:00,42.0,28.0,30.45,South,180,0.0,1.0,54,0.00,,,0.00,Rainwise IP-100,2013-04-16 10:39:00,
2013-04-16 06:44:00,42.0,26.0,30.45,SW,225,0.0,4.0,53,0.00,,,0.00,Rainwise IP-100,2013-04-16 10:44:00,
2013-04-16 06:49:00,42.0,26.0,30.46,South,180,0.0,0.0,53,0.00,,,0.00,Rainwise IP-100,2013-04-16 10:49:00,
2013-04-16 06:54:00,42.0,26.0,30.46,SE,135,1.0,4.0,52,0.00,,,0.00,Rainwise IP-100,2013-04-16 10:54:00,
2013-04-16 06:59:00,43.0,28.0,30.46,SE,135,1.0,6.0,53,0.00,,,0.00,Rainwise IP-100,2013-04-16 10:59:00,
2013-04-16 07:04:00,43.0,28.0,30.46,South,180,4.0,6.0,52,0.00,,,0.00,Rainwise IP-100,2013-04-16 11:04:00,
2013-04-16 07:09:00,43.0,28.0,30.46,ESE,112,3.0,7.0,52,0.00,,,0.00,Rainwise IP-100,2013-04-16 11:09:00,
2013-04-16 07:14:00,43.0,28.0,30.46,ESE,112,6.0,9.0,53,0.00,,,0.00,Rainwise IP-100,2013-04-16 11:14:00,
2013-04-16 07:19:00,44.0,29.0,30.46,SE,135,4.0,9.0,55,0.00,,,0.00,Rainwise IP-100,2013-04-16 11:19:00,
2013-04-16 07:24:00,44.0,29.0,30.46,SE,135,6.0,10.0,55,0.00,,,0.00,Rainwise IP-100,2013-04-16 11:24:00,
2013-04-16 07:29:00,44.0,29.0,30.46,SE,135,7.0,10.0,56,0.00,,,0.00,Rainwise IP-100,2013-04-16 11:29:00,
2013-04-16 07:34:00,44.0,31.0,30.46,SSE,157,4.0,10.0,57,0.00,,,0.00,Rainwise IP-100,2013-04-16 11:34:00,
2013-04-16 07:39:00,45.0,31.0,30.46,South,180,6.0,9.0,58,0.00,,,0.00,Rainwise IP-100,2013-04-16 11:39:00,
2013-04-16 07:45:00,45.0,31.0,30.46,SE,135,7.0,7.0,58,0.00,,,0.00,Rainwise IP-100,2013-04-16 11:45:00,
2013-04-16 07:50:00,45.0,32.0,30.46,SE,135,4.0,10.0,61,0.00,,,0.00,Rainwise IP-100,2013-04-16 11:50:00,
2013-04-16 07:55:00,46.0,33.0,30.46,SSE,157,0.0,7.0,61,0.00,,,0.00,Rainwise IP-100,2013-04-16 11:55:00,
2013-04-16 08:00:00,46.0,33.0,30.45,SSE,157,0.0,10.0,62,0.00,,,0.00,Rainwise IP-100,2013-04-16 12:00:00,
2013-04-16 08:05:00,46.0,35.0,30.45,SSE,157,3.0,12.0,64,0.00,,,0.00,Rainwise IP-100,2013-04-16 12:05:00,
2013-04-16 08:10:00,46.0,35.0,30.46,SE,135,6.0,10.0,65,0.00,,,0.00,Rainwise IP-100,2013-04-16 12:10:00,
2013-04-16 08:15:00,46.0,35.0,30.46,SSW,202,5.0,12.0,65,0.00,,,0.00,Rainwise IP-100,2013-04-16 12:15:00,
2013-04-16 08:20:00,46.0,36.0,30.46,SE,135,9.0,12.0,67,0.00,,,0.00,Rainwise IP-100,2013-04-16 12:20:00,
2013-04-16 08:25:00,47.0,36.0,30.46,ESE,112,7.0,12.0,67,0.00,,,0.00,Rainwise IP-100,2013-04-16 12:25:00,
2013-04-16 08:30:00,47.0,37.0,30.45,SSE,157,3.0,12.0,69,0.00,,,0.00,Rainwise IP-100,2013-04-16 12:30:00,
2013-04-16 08:35:00,47.0,37.0,30.45,SW,225,7.0,9.0,69,0.00,,,0.00,Rainwise IP-100,2013-04-16 12:35:00,
2013-04-16 08:40:00,47.0,38.0,30.44,SE,135,8.0,10.0,71,0.00,,,0.00,Rainwise IP-100,2013-04-16 12:40:00,
2013-04-16 08:45:00,48.0,39.0,30.44,SE,135,0.0,13.0,71,0.00,,,0.00,Rainwise IP-100,2013-04-16 12:45:00,
2013-04-16 08:50:00,48.0,39.0,30.44,South,180,6.0,10.0,72,0.00,,,0.00,Rainwise IP-100,2013-04-16 12:50:00,
2013-04-16 08:55:00,48.0,39.0,30.44,ESE,112,7.0,13.0,72,0.00,,,0.00,Rainwise IP-100,2013-04-16 12:55:00,
2013-04-16 09:01:00,48.0,40.0,30.44,SE,135,9.0,14.0,73,0.00,,,0.00,Rainwise IP-100,2013-04-16 13:01:00,
2013-04-16 09:06:00,48.0,40.0,30.44,SSW,202,6.0,12.0,73,0.00,,,0.00,Rainwise IP-100,2013-04-16 13:06:00,
2013-04-16 09:11:00,48.0,40.0,30.44,SE,135,6.0,13.0,73,0.00,,,0.00,Rainwise IP-100,2013-04-16 13:11:00,
2013-04-16 09:16:00,48.0,40.0,30.44,SE,135,3.0,14.0,73,0.00,,,0.00,Rainwise IP-100,2013-04-16 13:16:00,
2013-04-16 09:21:00,48.0,40.0,30.44,SSE,157,5.0,15.0,73,0.00,,,0.00,Rainwise IP-100,2013-04-16 13:21:00,
2013-04-16 09:26:00,49.0,41.0,30.44,SSW,202,6.0,10.0,73,0.00,,,0.00,Rainwise IP-100,2013-04-16 13:26:00,
2013-04-16 09:31:00,48.0,40.0,30.44,SE,135,6.0,15.0,74,0.00,,,0.00,Rainwise IP-100,2013-04-16 13:31:00,
2013-04-16 09:36:00,49.0,41.0,30.44,South,180,6.0,13.0,73,0.00,,,0.00,Rainwise IP-100,2013-04-16 13:36:00,
2013-04-16 09:41:00,49.0,41.0,30.44,ESE,112,6.0,13.0,75,0.00,,,0.00,Rainwise IP-100,2013-04-16 13:41:00,
2013-04-16 09:47:00,50.0,42.0,30.44,South,180,7.0,14.0,74,0.00,,,0.00,Rainwise IP-100,2013-04-16 13:47:00,
2013-04-16 09:52:00,49.0,41.0,30.44,SSE,157,4.0,15.0,75,0.00,,,0.00,Rainwise IP-100,2013-04-16 13:52:00,
2013-04-16 09:57:00,50.0,42.0,30.44,South,180,5.0,14.0,75,0.00,,,0.00,Rainwise IP-100,2013-04-16 13:57:00,
2013-04-16 10:02:00,50.0,42.0,30.44,South,180,4.0,15.0,75,0.00,,,0.00,Rainwise IP-100,2013-04-16 14:02:00,
2013-04-16 10:07:00,51.0,44.0,30.44,East,90,1.0,9.0,75,0.00,,,0.00,Rainwise IP-100,2013-04-16 14:07:00,
2013-04-16 10:12:00,51.0,44.0,30.43,SE,135,4.0,7.0,75,0.00,,,0.00,Rainwise IP-100,2013-04-16 14:12:00,
2013-04-16 10:17:00,51.0,44.0,30.43,South,180,5.0,12.0,76,0.00,,,0.00,Rainwise IP-100,2013-04-16 14:17:00,
2013-04-16 10:22:00,51.0,44.0,30.44,SSW,202,3.0,11.0,76,0.00,,,0.00,Rainwise IP-100,2013-04-16 14:22:00,
2013-04-16 10:27:00,51.0,44.0,30.44,ESE,112,2.0,16.0,76,0.00,,,0.00,Rainwise IP-100,2013-04-16 14:27:00,
2013-04-16 10:32:00,51.0,44.0,30.43,SE,135,9.0,13.0,77,0.00,,,0.00,Rainwise IP-100,2013-04-16 14:32:00,
2013-04-16 10:37:00,50.0,42.0,30.43,SE,135,9.0,15.0,76,0.00,,,0.00,Rainwise IP-100,2013-04-16 14:37:00,
2013-04-16 10:42:00,51.0,44.0,30.43,South,180,9.0,18.0,76,0.00,,,0.00,Rainwise IP-100,2013-04-16 14:42:00,
2013-04-16 10:47:00,51.0,44.0,30.43,SE,135,11.0,14.0,76,0.00,,,0.00,Rainwise IP-100,2013-04-16 14:47:00,
2013-04-16 10:53:00,52.0,45.0,30.42,SE,135,2.0,14.0,76,0.00,,,0.00,Rainwise IP-100,2013-04-16 14:53:00,
2013-04-16 10:58:00,52.0,45.0,30.42,SW,225,9.0,16.0,78,0.00,,,0.00,Rainwise IP-100,2013-04-16 14:58:00,
2013-04-16 11:03:00,52.0,45.0,30.42,South,180,14.0,14.0,77,0.00,,,0.00,Rainwise IP-100,2013-04-16 15:03:00,
2013-04-16 11:08:00,51.0,44.0,30.42,East,90,1.0,16.0,77,0.00,,,0.00,Rainwise IP-100,2013-04-16 15:08:00,
2013-04-16 11:13:00,52.0,45.0,30.42,South,180,2.0,15.0,77,0.00,,,0.00,Rainwise IP-100,2013-04-16 15:13:00,
2013-04-16 11:18:00,52.0,45.0,30.42,SSE,157,8.0,16.0,77,0.00,,,0.00,Rainwise IP-100,2013-04-16 15:18:00,
2013-04-16 11:23:00,52.0,45.0,30.41,SE,135,6.0,17.0,77,0.00,,,0.00,Rainwise IP-100,2013-04-16 15:23:00,
2013-04-16 11:28:00,52.0,46.0,30.41,SE,135,5.0,17.0,79,0.00,,,0.00,Rainwise IP-100,2013-04-16 15:28:00,
2013-04-16 11:33:00,52.0,45.0,30.41,South,180,8.0,15.0,77,0.00,,,0.00,Rainwise IP-100,2013-04-16 15:33:00,
2013-04-16 11:38:00,52.0,46.0,30.40,South,180,14.0,15.0,79,0.00,,,0.00,Rainwise IP-100,2013-04-16 15:38:00,
2013-04-16 11:43:00,52.0,45.0,30.40,South,180,10.0,16.0,77,0.00,,,0.00,Rainwise IP-100,2013-04-16 15:43:00,
2013-04-16 11:48:00,52.0,45.0,30.40,SSE,157,2.0,15.0,78,0.00,,,0.00,Rainwise IP-100,2013-04-16 15:48:00,
2013-04-16 11:53:00,52.0,45.0,30.40,SSW,202,10.0,16.0,77,0.00,,,0.00,Rainwise IP-100,2013-04-16 15:53:00,
2013-04-16 11:58:00,53.0,47.0,30.40,South,180,6.0,15.0,79,0.00,,,0.00,Rainwise IP-100,2013-04-16 15:58:00,
2013-04-16 12:03:00,52.0,45.0,30.40,SSW,202,13.0,17.0,77,0.00,,,0.00,Rainwise IP-100,2013-04-16 16:03:00,
2013-04-16 12:09:00,53.0,47.0,30.40,SSW,202,9.0,17.0,79,0.00,,,0.00,Rainwise IP-100,2013-04-16 16:09:00,
2013-04-16 12:14:00,53.0,46.0,30.40,SSW,202,6.0,14.0,77,0.00,,,0.00,Rainwise IP-100,2013-04-16 16:14:00,
2013-04-16 12:19:00,53.0,46.0,30.39,SSW,202,11.0,17.0,77,0.00,,,0.00,Rainwise IP-100,2013-04-16 16:19:00,
2013-04-16 12:24:00,53.0,46.0,30.39,SW,225,9.0,18.0,77,0.00,,,0.00,Rainwise IP-100,2013-04-16 16:24:00,
2013-04-16 12:29:00,53.0,46.0,30.38,SSW,202,9.0,18.0,77,0.00,,,0.00,Rainwise IP-100,2013-04-16 16:29:00,
2013-04-16 12:34:00,53.0,46.0,30.38,South,180,14.0,20.0,77,0.00,,,0.00,Rainwise IP-100,2013-04-16 16:34:00,
2013-04-16 12:39:00,53.0,46.0,30.37,SW,225,6.0,20.0,77,0.00,,,0.00,Rainwise IP-100,2013-04-16 16:39:00,
2013-04-16 12:44:00,54.0,47.5,30.37,SSW,202,10.0,12.0,79,0.00,,,0.00,Rainwise IP-100,2013-04-16 16:44:00,
2013-04-16 12:49:00,53.0,46.0,30.37,SW,225,8.0,20.0,77,0.00,,,0.00,Rainwise IP-100,2013-04-16 16:49:00,
2013-04-16 12:54:00,52.0,45.0,30.37,SE,135,11.0,22.0,77,0.00,,,0.00,Rainwise IP-100,2013-04-16 16:54:00,
2013-04-16 12:59:00,52.0,45.0,30.37,South,180,14.0,15.0,77,0.00,,,0.00,Rainwise IP-100,2013-04-16 16:59:00,
2013-04-16 13:04:00,53.0,46.0,30.37,South,180,9.0,17.0,77,0.00,,,0.00,Rainwise IP-100,2013-04-16 17:04:00,
2013-04-16 13:09:00,53.0,46.0,30.36,SSE,157,1.0,19.0,77,0.00,,,0.00,Rainwise IP-100,2013-04-16 17:09:00,
2013-04-16 13:14:00,53.0,46.0,30.36,South,180,11.0,19.0,77,0.00,,,0.00,Rainwise IP-100,2013-04-16 17:14:00,
2013-04-16 13:19:00,53.0,46.0,30.36,SW,225,7.0,20.0,78,0.00,,,0.00,Rainwise IP-100,2013-04-16 17:19:00,
2013-04-16 13:25:00,52.0,45.0,30.36,SE,135,7.0,20.0,78,0.00,,,0.00,Rainwise IP-100,2013-04-16 17:25:00,
2013-04-16 13:30:00,53.0,46.0,30.35,ESE,112,4.0,21.0,77,0.00,,,0.00,Rainwise IP-100,2013-04-16 17:30:00,
2013-04-16 13:35:00,53.0,46.0,30.35,SSW,202,7.0,22.0,78,0.00,,,0.00,Rainwise IP-100,2013-04-16 17:35:00,
2013-04-16 13:40:00,52.0,45.0,30.35,WSW,247,6.0,21.0,78,0.00,,,0.00,Rainwise IP-100,2013-04-16 17:40:00,
2013-04-16 13:45:00,53.0,46.0,30.35,ESE,112,13.0,17.0,78,0.00,,,0.00,Rainwise IP-100,2013-04-16 17:45:00,
2013-04-16 13:50:00,53.0,46.0,30.34,SSW,202,17.0,19.0,78,0.00,,,0.00,Rainwise IP-100,2013-04-16 17:50:00,
2013-04-16 13:55:00,53.0,46.0,30.34,South,180,8.0,20.0,78,0.00,,,0.00,Rainwise IP-100,2013-04-16 17:55:00,
2013-04-16 14:00:00,53.0,46.0,30.35,SSE,157,15.0,17.0,78,0.00,,,0.00,Rainwise IP-100,2013-04-16 18:00:00,
2013-04-16 14:05:00,53.0,46.0,30.35,South,180,6.0,20.0,78,0.00,,,0.00,Rainwise IP-100,2013-04-16 18:05:00,
2013-04-16 14:10:00,54.0,47.5,30.34,SW,225,7.0,15.0,79,0.00,,,0.00,Rainwise IP-100,2013-04-16 18:10:00,
2013-04-16 14:15:00,55.0,49.0,30.34,SW,225,13.0,17.0,79,0.00,,,0.00,Rainwise IP-100,2013-04-16 18:15:00,
2013-04-16 14:20:00,54.0,47.5,30.33,South,180,3.0,20.0,79,0.00,,,0.00,Rainwise IP-100,2013-04-16 18:20:00,
2013-04-16 14:25:00,55.0,49.0,30.33,South,180,12.0,18.0,79,0.00,,,0.00,Rainwise IP-100,2013-04-16 18:25:00,
2013-04-16 14:30:00,54.0,47.5,30.32,South,180,20.0,20.0,79,0.00,,,0.00,Rainwise IP-100,2013-04-16 18:30:00,
2013-04-16 14:35:00,54.0,47.5,30.32,South,180,9.0,20.0,79,0.00,,,0.00,Rainwise IP-100,2013-04-16 18:35:00,
2013-04-16 14:41:00,53.0,46.0,30.33,SW,225,5.0,20.0,78,0.00,,,0.00,Rainwise IP-100,2013-04-16 18:41:00,
2013-04-16 14:46:00,54.0,47.5,30.33,South,180,22.0,23.0,79,0.00,,,0.00,Rainwise IP-100,2013-04-16 18:46:00,
2013-04-16 14:51:00,54.0,47.5,30.32,SSW,202,7.0,22.0,79,0.00,,,0.00,Rainwise IP-100,2013-04-16 18:51:00,
2013-04-16 14:56:00,54.0,47.5,30.32,South,180,15.0,23.0,79,0.00,,,0.00,Rainwise IP-100,2013-04-16 18:56:00,
2013-04-16 15:01:00,54.0,47.5,30.32,SW,225,13.0,22.0,79,0.00,,,0.00,Rainwise IP-100,2013-04-16 19:01:00,
2013-04-16 15:06:00,55.0,49.0,30.32,SSW,202,7.0,23.0,79,0.00,,,0.00,Rainwise IP-100,2013-04-16 19:06:00,
2013-04-16 15:11:00,55.0,49.0,30.31,SW,225,5.0,17.0,79,0.00,,,0.00,Rainwise IP-100,2013-04-16 19:11:00,
2013-04-16 15:16:00,55.0,49.0,30.31,South,180,13.0,23.0,79,0.00,,,0.00,Rainwise IP-100,2013-04-16 19:16:00,
2013-04-16 15:21:00,55.0,49.0,30.31,South,180,1.0,19.0,79,0.00,,,0.00,Rainwise IP-100,2013-04-16 19:21:00,
2013-04-16 15:26:00,55.0,49.0,30.31,SE,135,1.0,21.0,79,0.00,,,0.00,Rainwise IP-100,2013-04-16 19:26:00,
2013-04-16 15:31:00,55.0,49.0,30.31,NNW,337,1.0,17.0,79,0.00,,,0.00,Rainwise IP-100,2013-04-16 19:31:00,
2013-04-16 15:36:00,55.0,49.0,30.31,South,180,9.0,19.0,79,0.00,,,0.00,Rainwise IP-100,2013-04-16 19:36:00,
2013-04-16 15:41:00,55.0,49.0,30.30,South,180,3.0,22.0,79,0.00,,,0.00,Rainwise IP-100,2013-04-16 19:41:00,
2013-04-16 15:46:00,55.0,49.0,30.30,WSW,247,6.0,18.0,79,0.00,,,0.00,Rainwise IP-100,2013-04-16 19:46:00,
2013-04-16 15:51:00,55.0,49.0,30.30,SSE,157,6.0,21.0,79,0.00,,,0.00,Rainwise IP-100,2013-04-16 19:51:00,
2013-04-16 15:57:00,55.0,49.0,30.30,SE,135,7.0,23.0,79,0.00,,,0.00,Rainwise IP-100,2013-04-16 19:57:00,
2013-04-16 16:02:00,54.0,47.5,30.30,SW,225,8.0,23.0,79,0.00,,,0.00,Rainwise IP-100,2013-04-16 20:02:00,
2013-04-16 16:07:00,54.0,47.5,30.30,SSE,157,8.0,23.0,79,0.00,,,0.00,Rainwise IP-100,2013-04-16 20:07:00,
2013-04-16 16:12:00,54.0,47.5,30.30,SW,225,0.0,20.0,79,0.00,,,0.00,Rainwise IP-100,2013-04-16 20:12:00,
2013-04-16 16:17:00,54.0,47.5,30.30,WSW,247,19.0,19.0,79,0.00,,,0.00,Rainwise IP-100,2013-04-16 20:17:00,
2013-04-16 16:22:00,55.0,49.0,30.30,SSE,157,10.0,20.0,79,0.00,,,0.00,Rainwise IP-100,2013-04-16 20:22:00,
2013-04-16 16:27:00,54.0,47.5,30.30,SW,225,19.0,23.0,79,0.00,,,0.00,Rainwise IP-100,2013-04-16 20:27:00,
2013-04-16 16:32:00,54.0,47.5,30.30,SSW,202,7.0,23.0,79,0.00,,,0.00,Rainwise IP-100,2013-04-16 20:32:00,
2013-04-16 16:37:00,54.0,47.5,30.30,South,180,7.0,20.0,79,0.00,,,0.00,Rainwise IP-100,2013-04-16 20:37:00,
2013-04-16 16:42:00,54.0,47.5,30.29,East,90,0.0,18.0,79,0.00,,,0.00,Rainwise IP-100,2013-04-16 20:42:00,
2013-04-16 16:47:00,54.0,47.5,30.29,SSW,202,8.0,20.0,79,0.00,,,0.00,Rainwise IP-100,2013-04-16 20:47:00,
2013-04-16 16:52:00,54.0,47.5,30.30,SE,135,15.0,19.0,79,0.00,,,0.00,Rainwise IP-100,2013-04-16 20:52:00,
2013-04-16 16:57:00,54.0,47.5,30.30,SW,225,8.0,21.0,79,0.00,,,0.00,Rainwise IP-100,2013-04-16 20:57:00,
2013-04-16 17:02:00,54.0,47.5,30.30,SW,225,8.0,18.0,79,0.00,,,0.00,Rainwise IP-100,2013-04-16 21:02:00,
2013-04-16 17:07:00,54.0,47.5,30.30,SW,225,19.0,25.0,79,0.00,,,0.00,Rainwise IP-100,2013-04-16 21:07:00,
2013-04-16 17:13:00,54.0,47.5,30.29,West,270,0.0,16.0,79,0.00,,,0.00,Rainwise IP-100,2013-04-16 21:13:00,
2013-04-16 17:18:00,53.0,46.0,30.29,ESE,112,3.0,18.0,78,0.00,,,0.00,Rainwise IP-100,2013-04-16 21:18:00,
2013-04-16 17:23:00,53.0,46.0,30.28,South,180,10.0,17.0,78,0.00,,,0.00,Rainwise IP-100,2013-04-16 21:23:00,
2013-04-16 17:28:00,53.0,47.0,30.28,South,180,13.0,19.0,79,0.00,,,0.00,Rainwise IP-100,2013-04-16 21:28:00,
2013-04-16 17:33:00,53.0,46.0,30.28,SSW,202,7.0,19.0,78,0.00,,,0.00,Rainwise IP-100,2013-04-16 21:33:00,
2013-04-16 17:38:00,53.0,46.0,30.28,SE,135,7.0,20.0,78,0.00,,,0.00,Rainwise IP-100,2013-04-16 21:38:00,
2013-04-16 17:43:00,53.0,46.0,30.26,South,180,9.0,20.0,78,0.00,,,0.00,Rainwise IP-100,2013-04-16 21:43:00,
2013-04-16 17:48:00,53.0,46.0,30.26,South,180,9.0,17.0,78,0.00,,,0.00,Rainwise IP-100,2013-04-16 21:48:00,
2013-04-16 17:53:00,52.0,45.0,30.25,West,270,7.0,20.0,78,0.00,,,0.00,Rainwise IP-100,2013-04-16 21:53:00,
2013-04-16 17:58:00,51.0,45.0,30.26,SSE,157,1.0,25.0,79,0.00,,,0.00,Rainwise IP-100,2013-04-16 21:58:00,
2013-04-16 18:03:00,51.0,45.0,30.26,South,180,7.0,16.0,78,0.00,,,0.00,Rainwise IP-100,2013-04-16 22:03:00,
2013-04-16 18:08:00,51.0,45.0,30.25,SSW,202,0.0,16.0,79,0.00,,,0.00,Rainwise IP-100,2013-04-16 22:08:00,
2013-04-16 18:13:00,51.0,44.0,30.25,SE,135,5.0,20.0,77,0.00,,,0.00,Rainwise IP-100,2013-04-16 22:13:00,
2013-04-16 18:18:00,51.0,45.0,30.24,SSE,157,7.0,16.0,79,0.00,,,0.00,Rainwise IP-100,2013-04-16 22:18:00,
2013-04-16 18:23:00,51.0,44.0,30.24,SW,225,1.0,19.0,77,0.00,,,0.00,Rainwise IP-100,2013-04-16 22:23:00,
2013-04-16 18:29:00,51.0,45.0,30.24,South,180,16.0,19.0,78,0.00,,,0.00,Rainwise IP-100,2013-04-16 22:29:00,
2013-04-16 18:34:00,51.0,45.0,30.24,South,180,9.0,19.0,78,0.00,,,0.00,Rainwise IP-100,2013-04-16 22:34:00,
2013-04-16 18:39:00,51.0,44.0,30.23,SSE,157,4.0,16.0,77,0.00,,,0.00,Rainwise IP-100,2013-04-16 22:39:00,
2013-04-16 18:44:00,51.0,44.0,30.23,SE,135,1.0,15.0,77,0.00,,,0.00,Rainwise IP-100,2013-04-16 22:44:00,
2013-04-16 18:49:00,51.0,45.0,30.23,WSW,247,10.0,22.0,78,0.00,,,0.00,Rainwise IP-100,2013-04-16 22:49:00,
2013-04-16 18:54:00,50.0,43.0,30.23,SE,135,3.0,17.0,77,0.00,,,0.00,Rainwise IP-100,2013-04-16 22:54:00,
2013-04-16 18:59:00,50.0,43.0,30.22,SSW,202,1.0,19.0,77,0.00,,,0.00,Rainwise IP-100,2013-04-16 22:59:00,
2013-04-16 19:04:00,50.0,43.0,30.22,South,180,6.0,16.0,77,0.00,,,0.00,Rainwise IP-100,2013-04-16 23:04:00,
2013-04-16 19:09:00,50.0,43.0,30.22,South,180,3.0,16.0,78,0.00,,,0.00,Rainwise IP-100,2013-04-16 23:09:00,
2013-04-16 19:14:00,50.0,43.0,30.22,WSW,247,12.0,19.0,78,0.00,,,0.00,Rainwise IP-100,2013-04-16 23:14:00,
2013-04-16 19:19:00,50.0,43.0,30.22,SE,135,4.0,19.0,78,0.00,,,0.00,Rainwise IP-100,2013-04-16 23:19:00,
2013-04-16 19:24:00,50.0,43.0,30.22,South,180,9.0,16.0,78,0.00,,,0.00,Rainwise IP-100,2013-04-16 23:24:00,
2013-04-16 19:29:00,50.0,43.0,30.21,SSW,202,8.0,17.0,78,0.00,,,0.00,Rainwise IP-100,2013-04-16 23:29:00,
2013-04-16 19:34:00,50.0,43.0,30.21,South,180,15.0,19.0,78,0.00,,,0.00,Rainwise IP-100,2013-04-16 23:34:00,
2013-04-16 19:39:00,50.0,43.0,30.20,SSW,202,5.0,19.0,78,0.00,,,0.00,Rainwise IP-100,2013-04-16 23:39:00,
2013-04-16 19:45:00,50.0,43.0,30.20,SE,135,2.0,15.0,78,0.00,,,0.00,Rainwise IP-100,2013-04-16 23:45:00,
2013-04-16 19:50:00,50.0,43.0,30.20,South,180,6.0,19.0,78,0.00,,,0.00,Rainwise IP-100,2013-04-16 23:50:00,
2013-04-16 19:55:00,50.0,43.0,30.21,South,180,0.0,19.0,78,0.00,,,0.00,Rainwise IP-100,2013-04-16 23:55:00,
2013-04-16 20:00:00,50.0,43.0,30.20,South,180,11.0,20.0,78,0.00,,,0.00,Rainwise IP-100,2013-04-17 00:00:00,
2013-04-16 20:05:00,50.0,43.0,30.20,SSW,202,2.0,20.0,77,0.00,,,0.00,Rainwise IP-100,2013-04-17 00:05:00,
2013-04-16 20:10:00,50.0,43.0,30.19,South,180,0.0,15.0,77,0.00,,,0.00,Rainwise IP-100,2013-04-17 00:10:00,
2013-04-16 20:15:00,50.0,43.0,30.19,SW,225,12.0,19.0,77,0.00,,,0.00,Rainwise IP-100,2013-04-17 00:15:00,
2013-04-16 20:20:00,50.0,43.0,30.19,SE,135,1.0,21.0,77,0.00,,,0.00,Rainwise IP-100,2013-04-17 00:20:00,
2013-04-16 20:25:00,50.0,43.0,30.19,SW,225,10.0,16.0,77,0.00,,,0.00,Rainwise IP-100,2013-04-17 00:25:00,
2013-04-16 20:30:00,50.0,42.0,30.18,South,180,7.0,19.0,76,0.00,,,0.00,Rainwise IP-100,2013-04-17 00:30:00,
2013-04-16 20:35:00,50.0,42.0,30.18,SW,225,9.0,19.0,76,0.00,,,0.00,Rainwise IP-100,2013-04-17 00:35:00,
2013-04-16 20:40:00,50.0,42.0,30.19,SSW,202,14.0,21.0,76,0.00,,,0.00,Rainwise IP-100,2013-04-17 00:40:00,
2013-04-16 20:45:00,50.0,42.0,30.19,South,180,7.0,19.0,75,0.00,,,0.00,Rainwise IP-100,2013-04-17 00:45:00,
2013-04-16 20:50:00,50.0,42.0,30.19,SSW,202,9.0,19.0,75,0.00,,,0.00,Rainwise IP-100,2013-04-17 00:50:00,
2013-04-16 20:55:00,50.0,42.0,30.19,SW,225,10.0,19.0,75,0.00,,,0.00,Rainwise IP-100,2013-04-17 00:55:00,
2013-04-16 21:01:00,50.0,42.0,30.18,South,180,6.0,20.0,75,0.00,,,0.00,Rainwise IP-100,2013-04-17 01:01:00,
2013-04-16 21:06:00,50.0,42.0,30.18,SSW,202,15.0,19.0,75,0.00,,,0.00,Rainwise IP-100,2013-04-17 01:06:00,
2013-04-16 21:11:00,50.0,42.0,30.19,SSW,202,12.0,19.0,74,0.00,,,0.00,Rainwise IP-100,2013-04-17 01:11:00,
2013-04-16 21:16:00,50.0,42.0,30.19,SW,225,5.0,19.0,74,0.00,,,0.00,Rainwise IP-100,2013-04-17 01:16:00,
2013-04-16 21:21:00,50.0,41.0,30.19,SW,225,11.0,18.0,73,0.00,,,0.00,Rainwise IP-100,2013-04-17 01:21:00,
2013-04-16 21:26:00,50.0,41.0,30.19,SSW,202,12.0,18.0,73,0.00,,,0.00,Rainwise IP-100,2013-04-17 01:26:00,
2013-04-16 21:31:00,50.0,41.0,30.19,SW,225,6.0,19.0,73,0.00,,,0.00,Rainwise IP-100,2013-04-17 01:31:00,
2013-04-16 21:36:00,50.0,41.0,30.19,SSW,202,9.0,18.0,73,0.00,,,0.00,Rainwise IP-100,2013-04-17 01:36:00,
2013-04-16 21:42:00,50.0,41.0,30.19,WSW,247,7.0,15.0,72,0.00,,,0.00,Rainwise IP-100,2013-04-17 01:42:00,
2013-04-16 21:47:00,50.0,41.0,30.19,SW,225,13.0,17.0,72,0.00,,,0.00,Rainwise IP-100,2013-04-17 01:47:00,
2013-04-16 21:52:00,50.0,41.0,30.19,South,180,11.0,23.0,72,0.00,,,0.00,Rainwise IP-100,2013-04-17 01:52:00,
2013-04-16 21:57:00,50.0,41.0,30.19,WSW,247,0.0,15.0,71,0.00,,,0.00,Rainwise IP-100,2013-04-17 01:57:00,
2013-04-16 22:02:00,50.0,41.0,30.19,WSW,247,4.0,18.0,71,0.00,,,0.00,Rainwise IP-100,2013-04-17 02:02:00,
2013-04-16 22:07:00,50.0,40.0,30.19,SSW,202,8.0,16.0,70,0.00,,,0.00,Rainwise IP-100,2013-04-17 02:07:00,
2013-04-16 22:12:00,50.0,40.0,30.18,SW,225,1.0,21.0,70,0.00,,,0.00,Rainwise IP-100,2013-04-17 02:12:00,
2013-04-16 22:17:00,50.0,40.0,30.18,SW,225,9.0,19.0,69,0.00,,,0.00,Rainwise IP-100,2013-04-17 02:17:00,
2013-04-16 22:22:00,50.0,40.0,30.18,SW,225,12.0,17.0,69,0.00,,,0.00,Rainwise IP-100,2013-04-17 02:22:00,
2013-04-16 22:27:00,50.0,39.0,30.18,SW,225,17.0,19.0,68,0.00,,,0.00,Rainwise IP-100,2013-04-17 02:27:00,
2013-04-16 22:32:00,50.0,39.0,30.18,SSW,202,17.0,19.0,68,0.00,,,0.00,Rainwise IP-100,2013-04-17 02:32:00,
2013-04-16 22:37:00,50.0,39.0,30.18,WSW,247,13.0,20.0,68,0.00,,,0.00,Rainwise IP-100,2013-04-17 02:37:00,
2013-04-16 22:42:00,50.0,39.0,30.17,South,180,8.0,20.0,67,0.00,,,0.00,Rainwise IP-100,2013-04-17 02:42:00,
2013-04-16 22:47:00,49.0,38.0,30.17,SSW,202,6.0,17.0,67,0.00,,,0.00,Rainwise IP-100,2013-04-17 02:47:00,
2013-04-16 22:52:00,50.0,39.0,30.17,South,180,11.0,16.0,66,0.00,,,0.00,Rainwise IP-100,2013-04-17 02:52:00,
2013-04-16 22:57:00,50.0,38.0,30.17,South,180,9.0,18.0,65,0.00,,,0.00,Rainwise IP-100,2013-04-17 02:57:00,
2013-04-16 23:03:00,50.0,38.0,30.17,SSW,202,12.0,23.0,65,0.00,,,0.00,Rainwise IP-100,2013-04-17 03:03:00,
2013-04-16 23:08:00,50.0,38.0,30.17,WSW,247,6.0,19.0,65,0.00,,,0.00,Rainwise IP-100,2013-04-17 03:08:00,
2013-04-16 23:13:00,50.0,38.0,30.17,SSW,202,12.0,21.0,64,0.00,,,0.00,Rainwise IP-100,2013-04-17 03:13:00,
2013-04-16 23:18:00,50.0,38.0,30.17,SW,225,9.0,21.0,63,0.00,,,0.00,Rainwise IP-100,2013-04-17 03:18:00,
2013-04-16 23:23:00,50.0,38.0,30.17,South,180,2.0,20.0,63,0.00,,,0.00,Rainwise IP-100,2013-04-17 03:23:00,
2013-04-16 23:28:00,50.0,40.0,30.16,SSW,202,7.0,17.0,70,0.00,,,0.00,Rainwise IP-100,2013-04-17 03:28:00,
2013-04-16 23:33:00,50.0,37.0,30.16,South,180,2.0,16.0,62,0.00,,,0.00,Rainwise IP-100,2013-04-17 03:33:00,
2013-04-16 23:38:00,50.0,40.0,30.17,West,270,12.0,23.0,69,0.00,,,0.00,Rainwise IP-100,2013-04-17 03:38:00,
2013-04-16 23:43:00,50.0,38.0,30.17,SW,225,11.0,19.0,63,0.00,,,0.00,Rainwise IP-100,2013-04-17 03:43:00,
2013-04-16 23:48:00,50.0,37.0,30.17,SW,225,6.0,18.0,61,0.00,,,0.00,Rainwise IP-100,2013-04-17 03:48:00,
2013-04-16 23:53:00,50.0,37.0,30.16,South,180,12.0,19.0,60,0.00,,,0.00,Rainwise IP-100,2013-04-17 03:53:00,
2013-04-16 23:58:00,51.0,41.0,30.16,SSW,202,13.0,21.0,68,0.00,,,0.00,Rainwise IP-100,2013-04-17 03:58:00,